Regional Weather Roundup
Issued by NWS

Home | Current Version | Previous Version | Graphics & Text | Print | Product List | Glossary On
Versions: 1 2 3 4 5 6 7 8 9 10 11 12 13 14 15 16 17 18 19 20 21 22 23 24 25 26 27 28 29 30 31 32 33 34 35 36 37 38 39 40 41 42 43 44 45 46 47 48 49 50
000
ASUS45 KBOU 161007
RWRCO

WEATHER ROUNDUP FOR COLORADO
NATIONAL WEATHER SERVICE DENVER/BOULDER CO
400 AM MDT MON OCT 16 2017

NOTE: "FAIR" INDICATES FEW OR NO CLOUDS BELOW 12000 FEET WITH NO
SIGNIFICANT WEATHER AND/OR OBSTRUCTIONS TO VISIBILITY.

COZ001>005-013-030-031-161100-
...NORTHWEST COLORADO...

CITY           SKY/WX    TMP DP  RH WIND       PRES   REMARKS
CRAIG          FAIR      23  17  78 CALM      30.46F
HAYDEN         FAIR      33  16  49 E9        30.48F WCI  25
MEEKER         FAIR      28  16  60 CALM      30.47F
RABBIT EARS PA FAIR      34   1  25 W7        30.58F WCI  28
STEAMBOAT SPGS FAIR      28  15  60 CALM      30.48F
WALDEN         FAIR      28  14  54 SE8       30.49F WCI  20
$$

COZ006>008-011-161100-
...WEST CENTRAL VALLEYS...

CITY           SKY/WX    TMP DP  RH WIND       PRES   REMARKS
GRAND JUNCTION FAIR      30  13  49 E3        30.45F
MONTROSE       FAIR      30  14  51 S9        30.50F WCI  22
EAGLE          FAIR      26  18  71 CALM      30.56S
RIFLE          FAIR      30  18  60 CALM      30.49F
DELTA          FAIR      33  10  39 E5        30.49S WCI  28
NUCLA          FAIR      32   7  34 E7        30.52S WCI  26
$$

COZ017>023-064>068-161100-
...SOUTHWEST COLORADO...

CITY           SKY/WX    TMP DP  RH WIND       PRES   REMARKS
DURANGO        FAIR      23  14  68 CALM      30.51F
CORTEZ         FAIR      23  14  68 CALM      30.49S
PAGOSA SPRINGS FAIR      31  12  45 CALM      30.55F
TELLURIDE      NOT AVBL
WOLF CREEK PAS FAIR      37 -11  12 SW8       30.76F
$$

COZ009-010-012-014-032>034-037-058>063-161100-
...CENTRAL COLORADO...

CITY           SKY/WX    TMP DP  RH WIND       PRES   REMARKS
ASPEN          FAIR      29  12  49 S7        30.52F WCI  22
BUENA VISTA    FAIR      29  13  51 CALM      30.52F
COPPER MTN     FAIR      37 -11  12 W10G20    30.67F
BERTHOUD PASS  FAIR      30  19  64 NW40G48   30.59F WCI  13
COTTONWOOD PAS FAIR      46  -9   9 CALM      30.58F
GUNNISON       FAIR      18  12  77 CALM      30.60S
KREMMLING      FAIR      25  19  80 CALM      30.55F
LEADVILLE      FAIR      35  -4  18 N8        30.57F WCI  29
MONARCH PASS   FAIR      32   0  25 SW25      30.77F WCI  19
SALIDA         NOT AVBL
SUNLIGHT       FAIR      36  -8  15 SW10      30.66F
WILKERSON PASS FAIR      36  -8  15 W9        30.64F
$$

COZ069>075-161100-
...SAN LUIS VALLEY/SANGRE DE CRISTO MOUNTAINS...

CITY           SKY/WX    TMP DP  RH WIND       PRES   REMARKS
ALAMOSA        FAIR      21  13  71 SW5       30.54S WCI  15
DEL NORTE      FAIR      35   8  32 W12       30.55F WCI  27
LA VETA PASS   FAIR      36  12  38 MISG      30.68F
SAGUACHE       FAIR      32   7  34 N10       30.56S WCI  24
$$

COZ035-036-038>040-161100-
...NORTHERN COLORADO FRONT RANGE...

CITY           SKY/WX    TMP DP  RH WIND       PRES   REMARKS
DENVER INTL AP FAIR      40  22  48 SW9       30.33F
DMNS CITY PARK   N/A     43  22  42 SE8G15    30.33F
AURORA         CLEAR     42  22  45 S9        30.34F
FRONT RANGE AP FAIR      41  27  56 S12G18    30.34F
ERIE MUNI ARPT FAIR      32  28  86 CALM      30.38F
BOULDER MUN AP FAIR      37  32  81 CALM      30.32F HAZE
CENTENNIAL     FAIR      43  19  38 S6        30.35F
BROOMFIELD     FAIR      43  21  42 S5        30.34F
FORT COLLINS   FAIR      38  29  70 CALM      30.33F
LONGMONT       FAIR      36  27  71 W3        30.34F
$$

COZ041-046-047-076>085-087-088-161100-
...PIKES PEAK/PALMER DIVIDE AND SOUTHERN FOOTHILLS...

CITY           SKY/WX    TMP DP  RH WIND       PRES   REMARKS
COLO. SPRINGS  MOCLDY    34  22  61 NE8       30.41F WCI  27
A. F. ACADEMY  FAIR      31  19  60 N9        30.40F WCI  23
SCHRIEVER AFB  FAIR      38  20  50 MISG      30.41F
CHEYENNE MTN   MOCLDY    50   9  19 CALM      30.36F
ELLICOTT       FAIR     N/A N/A N/A CALM      30.39F
FALCON         FAIR      34  20  57 W6        30.42F WCI  29
FORT CARSON    FAIR      37  21  52 NW8       30.38F
LIMON          FAIR      24  22  91 CALM      30.37F
MONUMENT HILL  NOT AVBL
CANON CITY     CLEAR     48  19  32 W15       30.37F
WALSENBURG     FAIR      39  19  45 CALM      30.41S
TRINIDAD       FAIR      40  26  57 W12       30.41F
$$

COZ042>045-048>051-090-091-161100-
...NORTHEAST COLORADO...

CITY           SKY/WX    TMP DP  RH WIND       PRES   REMARKS
GREELEY ARPT   FAIR      29  26  89 CALM      30.34F
AKRON          FAIR      43  23  45 SW15      30.31F
BURLINGTON     FAIR      36  28  73 SW10      30.34F
WRAY           FAIR      37  28  70 W5        30.31S
YUMA           FAIR      36  28  75 SW9       30.30F
STERLING       FAIR      32  28  86 S5        30.30S WCI  27
HOLYOKE        FAIR      34  30  86 W7        30.30F WCI  28
FORT MORGAN    FAIR      28  24  83 W8        30.33S WCI  20
$$

COZ086-089-092>099-161100-
...SOUTHEAST COLORADO...

CITY           SKY/WX    TMP DP  RH WIND       PRES   REMARKS
PUEBLO         FAIR      31  23  72 NW5       30.38F WCI  26
LA JUNTA       FAIR      36  28  73 W10       30.37F
LAMAR          FAIR      27  23  85 SW6       30.35F WCI  20
SPRINGFIELD      N/A     31  29  92 SW6       30.37F WCI  25
$$



USA.gov is the U.S. government's official web portal to all federal, state and local government web resources and services.